Location: Moreno
(33.9175°N, 117.1578°W)
Time: 06:44:08
(UTC+00:00)

Cosmos 1862 Rocket - Pass Details

Date: 18 April 2024
Orbit: 600 x 630 km, 82.5° (Epoch: 28 May)

Event Time Altitude Azimuth Distance (km) Brightness Sun altitude
Rises 12:35:29 0° 177° (S) 2,890 6.8 -8.4°
Reaches altitude 10° 12:37:44 10° 173° (S) 1,984 6.0 -7.9°
Maximum altitude 12:42:03 60° 94° (E) 710 4.2 -7.1°
Drops below altitude 10° 12:46:22 10° 15° (NNE) 1,979 6.6 -6.2°
Sets 12:48:37 0° 11° (NNE) 2,883 7.4 -5.8°
